Location: Allen Lane School
(37.8198°N, 89.7382°W)
Time: 05:24:23
(UTC+00:00)

N. Korean satellite - Pass Details

Date: 11 December 2022
Orbit: 407 x 444 km, 97.3° (Epoch: 28 January)

Event Time Altitude Azimuth Distance (km) Brightness Sun altitude
Rises 11:25:12 0° 8° (N) 2,473 10.1 -19.0°
Reaches altitude 10° 11:27:16 10° 5° (N) 1,586 9.1 -18.6°
Maximum altitude 11:30:38 63° 284° (WNW) 499 6.3 -17.9°
Drops below altitude 10° 11:33:54 10° 202° (SSW) 1,541 9.0 -17.3°
Sets 11:35:54 0° 199° (SSW) 2,394 10.1 -16.9°
